AHY7149 UKOO-LCLK

Flight info

Callsign AHY7149
Flight time N/A
Altitude 39000
Route N0450F390 HONFA P156 DIGAM M856 RAKUR UM856 BAG UA28 MUT B545 EVKIT L620 ALSUS R78 RUDER
Aircraft A320/M-VGDW/C

Departure

Time 2026-05-07 17:37
Airport Odesa International Airport (UKOO)

Arrival

Time N/A
Airport Larnaca International Airport (LCLK)
Time Latitude Longitude Altitude Speed Heading
2026-05-07 17:17 46.44145 30.67391 178 ft 0 kts 81°
2026-05-07 17:32 46.44144 30.67389 178 ft 1 kts 81°
2026-05-07 17:32 46.44142 30.67368 178 ft 2 kts 80°
2026-05-07 17:32 46.44140 30.67353 178 ft 2 kts 81°
2026-05-07 17:33 46.44137 30.67324 178 ft 2 kts 86°
2026-05-07 17:33 46.44141 30.67304 178 ft 2 kts 133°
2026-05-07 17:33 46.44152 30.67293 178 ft 0 kts 166°
2026-05-07 17:33 46.44158 30.67292 178 ft 1 kts 173°
2026-05-07 17:34 46.44160 30.67292 178 ft 0 kts 172°
2026-05-07 17:35 46.44134 30.67298 178 ft 8 kts 172°
2026-05-07 17:35 46.44070 30.67311 178 ft 9 kts 172°
2026-05-07 17:35 46.44008 30.67289 178 ft 10 kts 230°
2026-05-07 17:36 46.43969 30.67140 178 ft 21 kts 253°
2026-05-07 17:36 46.43927 30.66930 178 ft 21 kts 255°
2026-05-07 17:36 46.43809 30.66820 178 ft 41 kts 166°
2026-05-07 17:36 46.43246 30.67062 178 ft 124 kts 164°
2026-05-07 17:37 46.42252 30.67487 472 ft 163 kts 165°
2026-05-07 17:37 46.41212 30.67937 1422 ft 158 kts 164°
2026-05-07 17:37 46.40197 30.68382 2319 ft 159 kts 164°
2026-05-07 17:37 46.39097 30.68861 2935 ft 174 kts 165°
2026-05-07 17:38 46.37895 30.69379 3532 ft 192 kts 165°
2026-05-07 17:38 46.36540 30.69961 4053 ft 216 kts 164°
2026-05-07 17:38 46.35035 30.70609 4720 ft 236 kts 164°
2026-05-07 17:38 46.33407 30.71268 5393 ft 254 kts 165°
2026-05-07 17:39 46.31668 30.71929 6228 ft 266 kts 166°
2026-05-07 17:39 46.29893 30.72587 7206 ft 271 kts 166°
2026-05-07 17:39 46.28079 30.73258 8165 ft 275 kts 165°
2026-05-07 17:39 46.26231 30.73943 9091 ft 280 kts 165°
2026-05-07 17:40 46.24340 30.74647 9995 ft 285 kts 165°
2026-05-07 17:40 46.22408 30.75368 10742 ft 296 kts 165°
2026-05-07 17:40 46.20369 30.76130 11234 ft 314 kts 165°
2026-05-07 17:40 46.18197 30.76940 11688 ft 333 kts 165°
2026-05-07 17:41 46.15915 30.77792 12282 ft 345 kts 165°
2026-05-07 17:41 46.13575 30.78664 13107 ft 350 kts 165°
2026-05-07 17:41 46.11220 30.79540 13934 ft 353 kts 165°
2026-05-07 17:41 46.08866 30.80413 14704 ft 358 kts 165°
2026-05-07 17:42 46.06457 30.81308 15466 ft 362 kts 165°
2026-05-07 17:42 46.03997 30.82220 16219 ft 367 kts 165°
2026-05-07 17:42 46.01547 30.83128 16940 ft 371 kts 165°
2026-05-07 17:42 45.99026 30.84059 17644 ft 375 kts 165°
2026-05-07 17:43 45.96505 30.84991 18294 ft 380 kts 165°
2026-05-07 17:43 45.93911 30.85950 18947 ft 385 kts 165°
2026-05-07 17:43 45.91331 30.86903 19588 ft 389 kts 165°
2026-05-07 17:43 45.88725 30.87866 20217 ft 393 kts 165°
2026-05-07 17:44 45.86066 30.88861 20844 ft 397 kts 165°
2026-05-07 17:44 45.83381 30.89867 21457 ft 401 kts 165°
2026-05-07 17:44 45.80704 30.90869 22039 ft 406 kts 165°
2026-05-07 17:44 45.77942 30.91900 22638 ft 410 kts 165°
2026-05-07 17:45 45.75197 30.92923 23222 ft 413 kts 165°